Join the global jackpots currently alrevady available in our game, with the latest jackpot system and bigger rewards, where you can buy a jackpot at a price of as small as 100 CHIPS


Joining the Jackpot is optional, but we provide it as an extra feature for our loyal members here at thanpoker.com


There are four jackpot chips that you can buy: 100 chips, 500 chips, 1000 chips, and 2000 chips.


The "2000 Chips" jackpot option is only available for VIP Tables and above.


Prizes of Multi Jackpot system in thanpoker.com are as follow :


1. Full House X 10 jackpot price you buy

(Example: You buy 1000 chips then : 1000 X 10 = 10,000)

2. Four of a Kind X 250 jackpot price you buy

(Example: You buy 1000 chips then : 1000 X 250 = 250,000)

3. Straight Flush x 1,200 jackpot

(Example: You buy 1000 chips then : 1000 X 1200 = 1,200,000)

4. Royal Flush X 10,000 jackpot price you buy

(Example: You buy 1000 chips then : 1000 X 10,000 = 10,000,000)

5. Super Royal Flush X 30,000 jackpot price you buy

(Example: You buy 1000 chips then : 1000 X 30,000 = 30,000,000)


Card Conditions:


1. Full House is a condition in which your cards and middle cards with a total of 7 cards can get 5 cards with a combined value of 1 three-of-a-kind and 1 pair, for example, 3 cards of 10 and 2 cards of 5.

2. Four of a Kind is a condition in which your cards and middle cards with a total of 7 cards can get 5 cards with a combined value of 4 cards of the same number and one (1) card of any kind, for example, you get 4 pieces of 3 card (3-s, 3-h, 3-c, 3-d) and 1 card of any kind.

3. Straight Flush is a condition in which your cards and middle cards with a total of 7 cards can get 5 cards having the same suit and consecutive value, for example, your cards may sequence 5-h, 6-h, 7-h, 8-h, 9-h 10-h.

4. Royal Flush is a condition in which your cards and middle cards with a total of 7 cards can get 5 cards having the same suit and consecutive value with the smallest card in the sequence is the 10, for example, 10-s, J-s, Q-s, K-s, and A-s.

5. Super Royal flush is a condition in which the two cards you have in hand combined with the first 3 cards opened on the table are already the Royal Flush, for example, your first 2 cards in hand are 10-s and Q-s and the next 3 cards on the table show as J-s, K-s, and A-s.

6. Player must have the Jackpot combination and have a showdown with at least one player to qualify for the Jackpot. If all the other players fold the jackpot will not qualify.


The description above is a brief explanation of the thanpoker.com Multi Jackpot Promo. Thank you and congratulations to all Jackpot winners! We wish you all the good luck!

Super Royal Flush
No. Date Name Price Win
Royal Flush
No. Date Name Price Win
1 14/07 17:30 DWRUC1 Royal Flush 8,333,333.33
2 14/07 01:32 LOLA88888 Royal Flush 16,666,666.66
3 13/07 15:39 SYIF27 Royal Flush 16,666,666.66
Straight Flush
No. Date Name Price Win
1 15/07 03:41 PXC9BN8Q1G Straight Flush 1,000,000
2 15/07 01:44 SINOGHONZ Straight Flush 4,000,000
3 14/07 09:18 UNYILMAD3P Straight Flush 1,000,000
4 14/07 02:07 WESTERLING Straight Flush 4,000,000
Last Jackpot
No. Date Name Price Win
1 15/07 09:26 RAGANDA33 333.33
2 15/07 09:26 EEAC8638 333.33
3 15/07 09:26 KEL444R 333.33
4 15/07 09:26 A0CFE34D 166.66
5 15/07 09:26 JUANDAPKER 1,666.66
6 15/07 09:26 LVQZ6HDLJ3 333.33
7 15/07 09:26 AC4YYY 333.33
8 15/07 09:26 GOLAKGOLEK 1,666.66
9 15/07 09:26 OXSIGEN020 333.33
10 15/07 09:26 C84GONG714 333.33
11 15/07 09:26 TAINGBOTOL 833.33
12 15/07 09:26 NICE198888 1,666.66
13 15/07 09:26 HARLEY239 1,666.66
14 15/07 09:26 SUMEK 1,666.66
15 15/07 09:26 KENYO888 833.33
16 15/07 09:26 GOJILL1225 333.33
17 15/07 09:26 KDACONGEK949 1,666.66
18 15/07 09:26 IONAX016H1 833.33
19 15/07 09:26 JOEY58 3,333.33
20 15/07 09:26 BOPA71 1,666.66
21 15/07 09:26 KECRIT07 1,666.66
22 15/07 09:26 RICHARD99X 333.33
23 15/07 09:25 XENIA88 1,666.66
24 15/07 09:25 REJEKYCUS 833.33
25 15/07 09:25 E70B6E4EE6A889 333.33
26 15/07 09:25 QU4Z8Y0TRE 333.33
27 15/07 09:25 BOPAK28282 333.33
28 15/07 09:25 TOTIEKK 833.33
29 15/07 09:25 ROYHOK168 833.33
30 15/07 09:25 SEMAAR88Z 166.66
31 15/07 09:25 E92F66F7 833.33
32 15/07 09:25 BJ9ICOBCR 1,666.66
33 15/07 09:25 N461N4 333.33
34 15/07 09:25 PICO78 333.33
35 15/07 09:25 CICO15 166.66
36 15/07 09:25 IMP0S1BEL 333.33
37 15/07 09:25 CHAPSA19 333.33
38 15/07 09:25 SULING001 333.33
39 15/07 09:25 BENGIS123 166.66
40 15/07 09:25 WISKY333_ 333.33
41 15/07 09:25 PN1J129RSB 833.33
42 15/07 09:25 RAMPASASAQ 333.33
43 15/07 09:25 RIZKY_SUGI 333.33
44 15/07 09:25 LAEKAYOKO 833.33
45 15/07 09:25 SIPIR88 3,333.33
46 15/07 09:25 MINX888 3,333.33
47 15/07 09:25 T700K 1,666.66
48 15/07 09:25 HERMANSAYH 833.33
49 15/07 09:25 PEMBELAY 1,666.66
50 15/07 09:25 TOLOAMATQQ 333.33

Join the global jackpots currently already available in our game, with the latest jackpot system and bigger rewards, where you can buy a jackpot at a price of as small as 100 CHIPS.


Jackpot is not a necessity to buy, but we provide as an extra feature to the loyal members of thanpoker.com


There are four jackpot chips that you can buy : 100 chips , 500 chips , 1000 chips , and 2000 chips (only for Special VIP tables and above).


Prizes of Multi Jackpot system in thanpoker.com are as follow :


1. Small Pure X 50 jackpot price you buy

(Example: You buy 100 then : 100 X 50 = 5,000)

2. Pure Large X 50 jackpot you buy

(Example: You buy 100 then : 100 X 50 = 5,000)

3. Double X 150 jackpot price you buy

(Example: You buy 100 then : 100 X 150 = 15,000)

4. Six Dewa X 6666 jackpot price you buy

(Example: You buy 100 then : 100 X 6666 = 666,600)

Such description above is the brief explanation of the Multi Jackpot thanpoker.com


Thank you and congratulations on playing our game. We wish you all the goodluck!

TOP SIX DEWA
No. Date Name Price Win
1 15/07 09:20 DAPATQIU SIX GOD 1,666.66
2 15/07 09:16 NARORYAN SIX GOD 166.66
3 15/07 09:09 KANCOT99 SIX GOD 1,666.66
4 15/07 05:54 SIDENDAM SIX GOD 166.66
5 15/07 04:16 ARB89B249 SIX GOD 1,666.66
TOP DOUBLE
No. Date Name Price Win
1 15/07 09:24 BKAYAKAT76 TWINS 833.33
2 15/07 09:24 SUDIANUR TWINS 833.33
3 15/07 09:20 B36RIMAPB520 TWINS 166.66
4 15/07 09:20 GUSTRI1595 TWINS 833.33
5 15/07 09:19 STEMPEL88 TWINS 833.33
Last Jackpot
No. Date Name Price Win
1 15/07 09:25 AJAY55 PURE BIG 1,666.66
2 15/07 09:25 ODY1235_ PURE SMALL 833.33
3 15/07 09:25 POKE29 PURE BIG 1,666.66
4 15/07 09:24 POLODOD PURE BIG 833.33
5 15/07 09:24 BG160LO PURE SMALL 1,666.66
6 15/07 09:24 BKAYAKAT76 TWINS 833.33
7 15/07 09:24 STEMPEL88 PURE BIG 833.33
8 15/07 09:24 SUDIANUR TWINS 833.33
9 15/07 09:24 B88AFANCG3 PURE SMALL 166.66
10 15/07 09:23 MUN20 PURE SMALL 833.33
11 15/07 09:23 JUVE76 PURE SMALL 1,666.66
12 15/07 09:23 WORTEL09 PURE SMALL 1,666.66
13 15/07 09:23 WIDODOKUS7 PURE BIG 833.33
14 15/07 09:23 BHOYO76 PURE BIG 833.33
15 15/07 09:22 GAOKK88 PURE BIG 833.33
16 15/07 09:21 LOSENG80 PURE BIG 833.33
17 15/07 09:21 KING001 PURE BIG 1,666.66
18 15/07 09:21 DENDICS9 PURE SMALL 1,666.66
19 15/07 09:20 B36RIMAPB520 TWINS 166.66
20 15/07 09:20 KARETBUSUK PURE BIG 833.33
21 15/07 09:20 DEWALA80 PURE SMALL 833.33
22 15/07 09:20 SRVCTX00TS PURE BIG 166.66
23 15/07 09:20 DAPATQIU SIX GOD 1,666.66
24 15/07 09:20 GUSTRI1595 TWINS 833.33
25 15/07 09:20 FN2217 PURE SMALL 833.33
26 15/07 09:19 NMX11MC7Y6 PURE SMALL 1,666.66
27 15/07 09:19 YOIYOI74 PURE SMALL 1,666.66
28 15/07 09:19 STEMPEL88 TWINS 833.33
29 15/07 09:19 C55INDI97520 PURE BIG 166.66
30 15/07 09:18 X9XAVAX6 PURE SMALL 1,666.66
31 15/07 09:17 DAFFA3106 PURE SMALL 833.33
32 15/07 09:17 CAWET889 TWINS 833.33
33 15/07 09:16 SANI666666 PURE BIG 833.33
34 15/07 09:16 CEER17 PURE SMALL 1,666.66
35 15/07 09:16 YAYA93 PURE BIG 1,666.66
36 15/07 09:16 IRFAN_ PURE BIG 1,666.66
37 15/07 09:16 TRONG123 PURE BIG 833.33
38 15/07 09:16 SHAKERA89 PURE SMALL 1,666.66
39 15/07 09:16 HINAN313 TWINS 1,666.66
40 15/07 09:16 NARORYAN SIX GOD 166.66
41 15/07 09:16 DAPATQIU PURE SMALL 1,666.66
42 15/07 09:15 KAYOZZA99 PURE BIG 833.33
43 15/07 09:15 GENTONG13 PURE BIG 1,666.66
44 15/07 09:14 AZREL6666 PURE BIG 1,666.66
45 15/07 09:14 PLESDUT PURE BIG 1,666.66
46 15/07 09:13 DOMCEL1 PURE BIG 1,666.66
47 15/07 09:13 HENGSA1 TWINS 1,666.66
48 15/07 09:13 SUKSES2101 TWINS 1,666.66
49 15/07 09:13 KBHO777 PURE BIG 166.66
50 15/07 09:13 ARTA400 TWINS 1,666.66

Ceme Multi Jackpot System

Join the global jackpots currently already available in our game, with the latest jackpot system and bigger rewards, where you can buy a jackpot at a price of as small as 100 CHIPS.
Jackpot is seen as the combination of all the cards from both the players and the dealer. The dealer should buy as many jackpots as the number of all players who are playing. For example, if there are 3 players who are currently sitting to play and the dealer has decided to buy 100 CHIPS jackpot, then during this period, the dealer would buy as many jackpots as 3 X 100 = 300 CHIPS

Jackpot is not a necessity to buy, but we provide as an extra feature to the loyal members of thanpoker.com.

There are four jackpot chips that you can buy : 100 chips , 500 chips , 1000 chips , and 2000 chips (only for Special VIP tables and above).

Prizes of Multi Jackpot system in thanpoker.com are as follow :

  1. Small Pure X 50 jackpot price you buy
      (Example: You buy 100 then : 100 X 50 = 5,000)
  2. Pure Large X 50 jackpot you buy
      (Example: You buy 100 then : 100 X 50 = 5,000)
  3. Double X 150 jackpot price you buy
      (Example: You buy 100 then : 100 X 150 = 15,000)
  4. Six Dewa X 6666 jackpot price you buy
      (Example: You buy 100 then : 100 X 6666 = 666,600)

Such description above is the brief explanation of the Multi Jackpot thanpoker.com Thank you and congratulations on playing our game. We wish you all the goodluck!

TOP SIX DEWA
No. Date Name Price Win
1 15/07 08:40 ANJELIN SIX GOD 1,666.66
2 15/07 08:34 SKUZY SIX GOD 166.66
3 15/07 08:27 SUGIHTRUS SIX GOD 1,666.66
4 15/07 08:27 GUPPY1688 SIX GOD 1,666.66
5 15/07 08:21 CANAM99 SIX GOD 1,666.66
TOP DOUBLE
No. Date Name Price Win
1 15/07 09:26 OBHIET_12 TWINS 833.33
2 15/07 09:26 DWBTRULS51 TWINS 1,666.66
3 15/07 09:26 PLISJACPOT TWINS 1,666.66
4 15/07 09:25 QQOKTBAHQQ TWINS 1,666.66
5 15/07 09:25 AVFARIQ TWINS 1,666.66
Last Jackpot
No. Date Name Price Win
1 15/07 09:26 OBHIET_12 TWINS 833.33
2 15/07 09:26 DWBTRULS51 TWINS 1,666.66
3 15/07 09:26 BON47_ PURE SMALL 1,666.66
4 15/07 09:26 VVIP_84 PURE SMALL 1,666.66
5 15/07 09:26 PLISJACPOT TWINS 1,666.66
6 15/07 09:26 ALMARIO9 PURE BIG 833.33
7 15/07 09:26 K3ZQU4FO4F PURE BIG 166.66
8 15/07 09:26 DINDAAAAA4 PURE BIG 166.66
9 15/07 09:25 HADIMAS PURE SMALL 166.66
10 15/07 09:25 QQOKTBAHQQ TWINS 1,666.66
11 15/07 09:25 BITCOIN69 PURE SMALL 1,666.66
12 15/07 09:25 CUPIDS PURE BIG 166.66
13 15/07 09:25 NMX11MC7Y6 PURE BIG 1,666.66
14 15/07 09:25 NMX11MC7Y6 PURE BIG 1,666.66
15 15/07 09:25 ABADI234 PURE SMALL 1,666.66
16 15/07 09:25 ARKATTA99 PURE BIG 1,666.66
17 15/07 09:25 MACHO389 PURE BIG 166.66
18 15/07 09:25 FADIL12 PURE BIG 1,666.66
19 15/07 09:25 UDIN99HK PURE BIG 833.33
20 15/07 09:25 NOBITTA777 PURE BIG 1,666.66
21 15/07 09:25 TOLEJAY2 PURE SMALL 1,666.66
22 15/07 09:25 VIAZ123 PURE SMALL 1,666.66
23 15/07 09:25 SUKM95117 PURE SMALL 1,666.66
24 15/07 09:25 FGPLTAP8WN PURE SMALL 833.33
25 15/07 09:25 AVFARIQ TWINS 1,666.66
26 15/07 09:25 SNI35660 PURE BIG 1,666.66
27 15/07 09:25 AKBART22 PURE BIG 1,666.66
28 15/07 09:24 CONSCRIPT6 PURE SMALL 1,666.66
29 15/07 09:24 THELUY PURE SMALL 1,666.66
30 15/07 09:24 AKBART22 PURE BIG 1,666.66
31 15/07 09:23 NJUKDUIT PURE BIG 1,666.66
32 15/07 09:23 VIAZ123 PURE BIG 1,666.66
33 15/07 09:23 ELAN420 PURE SMALL 166.66
34 15/07 09:23 SUPERJP12 PURE SMALL 1,666.66
35 15/07 09:23 DENK019 PURE SMALL 1,666.66
36 15/07 09:23 NADIA01NAD PURE SMALL 833.33
37 15/07 09:23 RSM90 TWINS 1,666.66
38 15/07 09:23 ABADI234 PURE SMALL 1,666.66
39 15/07 09:23 AMRIZAL10 PURE SMALL 166.66
40 15/07 09:23 BITCOIN69 PURE SMALL 1,666.66
41 15/07 09:22 CRS888 PURE SMALL 1,666.66
42 15/07 09:22 GETOTAJA PURE BIG 833.33
43 15/07 09:22 TORRETO PURE SMALL 833.33
44 15/07 09:22 RIKIBASTAN PURE SMALL 166.66
45 15/07 09:22 NONI34 PURE SMALL 1,666.66
46 15/07 09:22 KENTIR232 PURE BIG 1,666.66
47 15/07 09:22 KAMPUS68 PURE SMALL 1,666.66
48 15/07 09:22 NAVI20 TWINS 1,666.66
49 15/07 09:22 ETOCK11 TWINS 1,666.66
50 15/07 09:22 JLITENG123 PURE BIG 1,666.66